When you browse on this site, cookies collect data to enhance your experience and personalize the content and advertising you see.
Visit our Privacy Policy to learn more. By continuing to use the site, you agree to this use of cookies and data.
  • In Romania
  • List of Countries
  • For 7 days
  • Water Temperature
  • Weather Map
  • Weather Widgets
  • user-avatar
    Login

    Hourly Weather Mamou

    Today, 16 November, Saturday

    Time Temperature Precipitation Wind Pressure Humidity
    00:00 +29°C° 0 mm 2 mps 731 mmHg 27%
    01:00 +29°C° 0 mm 2 mps 731 mmHg 28%
    02:00 +28°C° 0 mm 2 mps 731 mmHg 28%
    03:00 +28°C° 0 mm 1 mps 731 mmHg 28%
    04:00 +27°C° 0 mm 1 mps 731 mmHg 29%
    05:00 +27°C° 0 mm 1 mps 731 mmHg 29%
    06:00 +27°C° 0 mm 1 mps 731 mmHg 30%
    07:00 +27°C° 0 mm 1 mps 732 mmHg 31%
    08:00 +29°C° 0 mm 1 mps 732 mmHg 27%
    09:00 +32°C° 0 mm 1 mps 732 mmHg 22%
    10:00 +34°C° 0 mm 1 mps 733 mmHg 18%
    11:00 +36°C° 0 mm 1 mps 732 mmHg 17%
    12:00 +37°C° 0 mm 1 mps 731 mmHg 15%
    13:00 +40°C° 0 mm 1 mps 730 mmHg 14%
    14:00 +40°C° 0 mm 1 mps 730 mmHg 14%
    15:00 +40°C° 0 mm 2 mps 729 mmHg 14%
    16:00 +40°C° 0 mm 2 mps 729 mmHg 14%
    17:00 +38°C° 0 mm 2 mps 729 mmHg 17%
    18:00 +35°C° 0 mm 1 mps 729 mmHg 20%
    19:00 +32°C° 0 mm 1 mps 729 mmHg 22%
    20:00 +32°C° 0 mm 1 mps 730 mmHg 24%
    21:00 +31°C° 0 mm 1 mps 730 mmHg 25%
    22:00 +30°C° 0 mm 1 mps 731 mmHg 26%
    23:00 +30°C° 0 mm 1 mps 731 mmHg 27%

    Tomorrow, 17 November, Sunday

    Time Temperature Precipitation Wind Pressure Humidity
    00:00 +29°C° 0 mm 1 mps 731 mmHg 28%
    01:00 +29°C° 0 mm 1 mps 731 mmHg 28%
    02:00 +28°C° 0 mm 1 mps 730 mmHg 29%
    03:00 +28°C° 0 mm 1 mps 730 mmHg 30%
    04:00 +27°C° 0 mm 1 mps 730 mmHg 30%
    05:00 +27°C° 0 mm 1 mps 731 mmHg 31%
    06:00 +28°C° 0 mm 1 mps 731 mmHg 32%
    07:00 +28°C° 0 mm 1 mps 732 mmHg 33%
    08:00 +30°C° 0 mm 1 mps 732 mmHg 29%
    09:00 +33°C° 0 mm 1 mps 732 mmHg 24%
    10:00 +35°C° 0 mm 1 mps 732 mmHg 20%
    11:00 +36°C° 0 mm 1 mps 732 mmHg 18%
    12:00 +37°C° 0 mm 1 mps 731 mmHg 16%
    13:00 +40°C° 0 mm 1 mps 730 mmHg 14%
    14:00 +40°C° 0 mm 1 mps 730 mmHg 14%
    15:00 +40°C° 0 mm 1 mps 729 mmHg 14%
    16:00 +40°C° 0 mm 1 mps 729 mmHg 14%
    17:00 +36°C° 0 mm 1 mps 729 mmHg 16%
    18:00 +34°C° 0 mm 1 mps 730 mmHg 19%
    19:00 +32°C° 0 mm 1 mps 730 mmHg 21%
    20:00 +32°C° 0 mm 1 mps 730 mmHg 22%
    21:00 +31°C° 0 mm 1 mps 731 mmHg 23%
    22:00 +30°C° 0 mm 1 mps 731 mmHg 24%
    23:00 +30°C° 0 mm 1 mps 731 mmHg 25%

    Day after tomorrow, 18 November, Monday

    Time Temperature Precipitation Wind Pressure Humidity
    00:00 +29°C° 0 mm 1 mps 731 mmHg 26%
    01:00 +29°C° 0 mm 1 mps 731 mmHg 26%
    02:00 +28°C° 0 mm 1 mps 731 mmHg 27%
    03:00 +28°C° 0 mm 1 mps 730 mmHg 28%
    04:00 +27°C° 0 mm 1 mps 730 mmHg 29%
    05:00 +25°C° 0 mm 0 mps 731 mmHg 30%
    06:00 +26°C° 0 mm 0 mps 731 mmHg 31%
    07:00 +26°C° 0 mm 0 mps 732 mmHg 32%
    08:00 +30°C° 0 mm 1 mps 732 mmHg 30%
    09:00 +32°C° 0 mm 1 mps 732 mmHg 28%
    10:00 +36°C° 0 mm 2 mps 732 mmHg 26%
    11:00 +37°C° 0 mm 2 mps 732 mmHg 23%
    12:00 +37°C° 0 mm 1 mps 731 mmHg 21%
    13:00 +40°C° 0 mm 1 mps 731 mmHg 18%
    14:00 +40°C° 0 mm 1 mps 730 mmHg 17%
    15:00 +40°C° 0 mm 1 mps 730 mmHg 16%
    16:00 +37°C° 0 mm 0 mps 729 mmHg 16%
    17:00 +37°C° 0 mm 1 mps 730 mmHg 18%
    18:00 +35°C° 0 mm 1 mps 730 mmHg 20%
    19:00 +33°C° 0 mm 1 mps 730 mmHg 22%
    20:00 +32°C° 0 mm 1 mps 731 mmHg 23%
    21:00 +32°C° 0 mm 1 mps 731 mmHg 24%
    22:00 +31°C° 0 mm 1 mps 731 mmHg 24%
    23:00 +29°C° 0 mm 0 mps 731 mmHg 25%

    19 November, Tuesday

    Time Temperature Precipitation Wind Pressure Humidity
    00:00 +28°C° 0 mm 0 mps 731 mmHg 25%
    01:00 +28°C° 0 mm 0 mps 731 mmHg 26%
    02:00 +27°C° 0 mm 0 mps 731 mmHg 27%
    03:00 +27°C° 0 mm 0 mps 731 mmHg 27%
    04:00 +26°C° 0 mm 0 mps 731 mmHg 28%
    05:00 +26°C° 0 mm 0 mps 731 mmHg 30%
    06:00 +26°C° 0 mm 0 mps 732 mmHg 33%
    07:00 +26°C° 0 mm 0 mps 732 mmHg 35%
    08:00 +30°C° 0 mm 1 mps 733 mmHg 33%
    09:00 +33°C° 0 mm 1 mps 733 mmHg 32%
    10:00 +36°C° 0 mm 2 mps 733 mmHg 30%
    11:00 +37°C° 0 mm 2 mps 732 mmHg 27%
    12:00 +37°C° 0 mm 1 mps 732 mmHg 25%
    13:00 +40°C° 0 mm 1 mps 731 mmHg 22%
    14:00 +40°C° 0 mm 1 mps 730 mmHg 21%
    15:00 +40°C° 0 mm 1 mps 730 mmHg 20%
    16:00 +40°C° 0 mm 1 mps 730 mmHg 19%
    17:00 +37°C° 0 mm 1 mps 730 mmHg 22%
    18:00 +35°C° 0 mm 1 mps 730 mmHg 25%
    19:00 +33°C° 0 mm 1 mps 730 mmHg 28%
    20:00 +31°C° 0 mm 0 mps 731 mmHg 29%
    21:00 +30°C° 0 mm 0 mps 731 mmHg 30%
    22:00 +29°C° 0 mm 0 mps 731 mmHg 32%
    23:00 +29°C° 0 mm 0 mps 731 mmHg 33%

    20 November, Wednesday

    Time Temperature Precipitation Wind Pressure Humidity
    00:00 +29°C° 0 mm 0 mps 731 mmHg 34%
    01:00 +28°C° 0 mm 0 mps 731 mmHg 36%
    02:00 +28°C° 0 mm 0 mps 731 mmHg 37%
    03:00 +27°C° 0 mm 0 mps 731 mmHg 38%
    04:00 +27°C° 0 mm 0 mps 731 mmHg 38%
    05:00 +27°C° 0 mm 0 mps 731 mmHg 40%
    06:00 +27°C° 0 mm 0 mps 732 mmHg 41%
    07:00 +27°C° 0 mm 0 mps 732 mmHg 43%
    08:00 +31°C° 0 mm 1 mps 732 mmHg 39%
    09:00 +33°C° 0 mm 1 mps 732 mmHg 36%
    10:00 +36°C° 0 mm 2 mps 733 mmHg 32%
    11:00 +37°C° 0 mm 1 mps 732 mmHg 29%
    12:00 +39°C° 0 mm 1 mps 731 mmHg 25%
    13:00 +40°C° 0 mm 1 mps 731 mmHg 22%
    14:00 +40°C° 0 mm 1 mps 730 mmHg 21%
    15:00 +40°C° 0 mm 1 mps 730 mmHg 21%
    16:00 +40°C° 0 mm 1 mps 729 mmHg 20%
    17:00 +37°C° 0 mm 1 mps 729 mmHg 23%
    18:00 +35°C° 0 mm 1 mps 730 mmHg 25%
    19:00 +34°C° 0 mm 1 mps 730 mmHg 28%
    20:00 +33°C° 0 mm 1 mps 730 mmHg 29%
    21:00 +32°C° 0 mm 1 mps 731 mmHg 30%
    22:00 +32°C° 0 mm 1 mps 731 mmHg 31%
    23:00 +31°C° 0 mm 1 mps 731 mmHg 32%

    21 November, Thursday

    Time Temperature Precipitation Wind Pressure Humidity
    00:00 +31°C° 0 mm 1 mps 731 mmHg 33%
    01:00 +30°C° 0 mm 1 mps 731 mmHg 33%
    02:00 +30°C° 0 mm 1 mps 731 mmHg 34%
    03:00 +29°C° 0 mm 1 mps 731 mmHg 34%
    04:00 +29°C° 0 mm 1 mps 730 mmHg 34%
    05:00 +29°C° 0 mm 1 mps 731 mmHg 35%
    06:00 +29°C° 0 mm 1 mps 731 mmHg 35%
    07:00 +29°C° 0 mm 1 mps 732 mmHg 35%
    08:00 +31°C° 0 mm 1 mps 732 mmHg 32%
    09:00 +34°C° 0 mm 1 mps 732 mmHg 28%
    10:00 +36°C° 0 mm 1 mps 732 mmHg 24%
    11:00 +37°C° 0 mm 1 mps 732 mmHg 21%
    12:00 +40°C° 0 mm 1 mps 731 mmHg 19%
    13:00 +41°C° 0 mm 1 mps 730 mmHg 16%
    14:00 +41°C° 0 mm 1 mps 730 mmHg 15%
    15:00 +41°C° 0 mm 2 mps 730 mmHg 14%
    16:00 +41°C° 0 mm 2 mps 729 mmHg 14%
    17:00 +39°C° 0 mm 1 mps 729 mmHg 17%
    18:00 +36°C° 0 mm 1 mps 729 mmHg 20%
    19:00 +33°C° 0 mm 1 mps 730 mmHg 23%
    20:00 +33°C° 0 mm 1 mps 730 mmHg 22%
    21:00 +32°C° 0 mm 1 mps 731 mmHg 22%
    22:00 +31°C° 0 mm 2 mps 731 mmHg 21%
    23:00 +31°C° 0 mm 1 mps 731 mmHg 21%
    Show more